TimeEDT,TemperatureF,Dew PointF,Humidity,Sea Level PressureIn,VisibilityMPH,Wind Direction,Wind SpeedMPH,Gust SpeedMPH,PrecipitationIn,Events,Conditions,WindDirDegrees,DateUTC
12:54 AM,42.1,30.9,65,29.93,10.0,NNW,15.0,25.3,N/A,,Partly Cloudy,330,2012-10-30 04:54:00
1:54 AM,39.0,30.0,70,29.90,10.0,NW,16.1,20.7,N/A,,Mostly Cloudy,320,2012-10-30 05:54:00
2:54 AM,37.9,30.0,73,29.87,10.0,NW,16.1,-,N/A,,Clear,320,2012-10-30 06:54:00
3:54 AM,39.0,30.0,70,29.84,10.0,NW,15.0,-,N/A,,Clear,320,2012-10-30 07:54:00
4:54 AM,37.9,28.9,70,29.81,10.0,NNW,16.1,27.6,N/A,,Clear,330,2012-10-30 08:54:00
5:54 AM,37.9,28.0,68,29.80,10.0,NNW,20.7,29.9,N/A,,Clear,330,2012-10-30 09:54:00
6:54 AM,37.9,28.0,68,29.78,10.0,NW,20.7,31.1,N/A,,Clear,320,2012-10-30 10:54:00
7:54 AM,37.9,28.9,70,29.77,10.0,NNW,20.7,28.8,N/A,,Clear,330,2012-10-30 11:54:00
8:54 AM,37.9,28.9,70,29.76,10.0,NNW,17.3,31.1,N/A,,Mostly Cloudy,330,2012-10-30 12:54:00
9:54 AM,39.9,30.0,68,29.74,10.0,NNW,20.7,31.1,N/A,,Mostly Cloudy,330,2012-10-30 13:54:00
10:25 AM,39.2,30.2,70,29.72,10.0,NNW,21.9,29.9,N/A,,Overcast,330,2012-10-30 14:25:00
10:54 AM,41.0,30.0,65,29.73,10.0,NNW,19.6,28.8,N/A,,Overcast,340,2012-10-30 14:54:00
11:54 AM,42.1,30.9,65,29.73,10.0,NNW,19.6,29.9,N/A,,Overcast,330,2012-10-30 15:54:00
12:54 PM,42.1,30.9,65,29.73,10.0,NNW,24.2,33.4,N/A,,Overcast,340,2012-10-30 16:54:00
1:54 PM,42.1,30.9,65,29.73,10.0,NNW,25.3,34.5,N/A,,Overcast,340,2012-10-30 17:54:00
2:54 PM,42.1,32.0,67,29.72,10.0,NNW,20.7,34.5,N/A,,Overcast,340,2012-10-30 18:54:00
3:54 PM,43.0,32.0,65,29.72,10.0,NNW,20.7,39.1,N/A,,Overcast,340,2012-10-30 19:54:00
4:54 PM,43.0,32.0,65,29.74,10.0,NNW,17.3,32.2,0.00,,Overcast,340,2012-10-30 20:54:00
5:54 PM,41.0,33.1,73,29.75,10.0,NNW,19.6,35.7,0.00,Rain,Light Rain,330,2012-10-30 21:54:00
6:30 PM,41.0,33.8,76,29.75,10.0,NNW,18.4,33.4,0.00,,Overcast,340,2012-10-30 22:30:00
6:54 PM,41.0,32.0,70,29.76,10.0,North,15.0,25.3,0.00,,Overcast,350,2012-10-30 22:54:00
7:54 PM,42.1,32.0,67,29.78,10.0,North,13.8,26.5,N/A,,Overcast,350,2012-10-30 23:54:00
8:54 PM,41.0,32.0,70,29.78,10.0,NNW,12.7,-,N/A,,Overcast,330,2012-10-31 00:54:00
9:54 PM,42.1,30.0,62,29.78,10.0,NNW,11.5,19.6,N/A,,Overcast,330,2012-10-31 01:54:00
10:54 PM,41.0,30.0,65,29.78,10.0,NNW,11.5,-,N/A,,Overcast,340,2012-10-31 02:54:00
11:54 PM,41.0,28.9,62,29.77,10.0,NNW,12.7,20.7,N/A,,Overcast,330,2012-10-31 03:54:00